CCASB SCPC-SCTB

Flight info

Callsign CCASB
Flight time N/A
Altitude 30000
Route MUBIL DCT SUMKO DCT MUNEP DCT ANDIX DCT ANGOD
Aircraft SF50/L-BDGRSWY/LB2U2

Departure

Time 2026-04-22 19:09
Airport Pucón Airport (SCPC)

Arrival

Time N/A
Airport Eulogio Sánchez Airport (SCTB)
Time Latitude Longitude Altitude Speed Heading
2026-04-22 18:50 -39.29036 -71.92097 911 ft 0 kts 11°
2026-04-22 19:03 -39.29022 -71.92119 909 ft 9 kts 281°
2026-04-22 19:03 -39.29033 -71.92178 909 ft 6 kts 203°
2026-04-22 19:03 -39.29047 -71.92184 909 ft 0 kts 190°
2026-04-22 19:05 -39.29066 -71.92188 904 ft 8 kts 190°
2026-04-22 19:05 -39.29131 -71.92157 905 ft 12 kts 110°
2026-04-22 19:05 -39.29153 -71.92050 911 ft 12 kts 102°
2026-04-22 19:06 -39.29172 -71.91937 911 ft 13 kts 101°
2026-04-22 19:06 -39.29190 -71.91817 912 ft 14 kts 101°
2026-04-22 19:06 -39.29215 -71.91694 916 ft 14 kts 103°
2026-04-22 19:07 -39.29257 -71.91435 915 ft 15 kts 101°
2026-04-22 19:07 -39.29276 -71.91298 917 ft 16 kts 100°
2026-04-22 19:07 -39.29299 -71.91159 919 ft 17 kts 98°
2026-04-22 19:07 -39.29325 -71.91004 912 ft 19 kts 105°
2026-04-22 19:08 -39.29358 -71.90836 911 ft 19 kts 97°
2026-04-22 19:08 -39.29344 -71.90690 908 ft 14 kts 152°
2026-04-22 19:08 -39.29356 -71.90801 912 ft 32 kts 281°
2026-04-22 19:08 -39.29269 -71.91346 914 ft 89 kts 282°
2026-04-22 19:09 -39.29125 -71.92224 1176 ft 110 kts 283°
2026-04-22 19:09 -39.28952 -71.93274 1609 ft 124 kts 282°
2026-04-22 19:09 -39.28826 -71.94011 1982 ft 129 kts 284°
2026-04-22 19:09 -39.28387 -71.95574 2545 ft 152 kts 292°
2026-04-22 19:10 -39.27848 -71.96800 3067 ft 162 kts 301°
2026-04-22 19:10 -39.27250 -71.98041 3749 ft 162 kts 300°
2026-04-22 19:10 -39.26658 -71.99282 4337 ft 163 kts 300°
2026-04-22 19:10 -39.26065 -72.00533 4899 ft 164 kts 300°
2026-04-22 19:11 -39.25415 -72.01743 5430 ft 165 kts 311°
2026-04-22 19:11 -39.24552 -72.02740 5935 ft 167 kts 316°
2026-04-22 19:11 -39.23545 -72.03484 6420 ft 172 kts 335°
2026-04-22 19:11 -39.22440 -72.04079 6923 ft 172 kts 330°
2026-04-22 19:12 -39.21381 -72.04794 7395 ft 173 kts 327°
2026-04-22 19:12 -39.20316 -72.05529 7877 ft 174 kts 326°
2026-04-22 19:12 -39.19243 -72.06265 8367 ft 176 kts 326°
2026-04-22 19:12 -39.18156 -72.07010 8871 ft 177 kts 326°
2026-04-22 19:13 -39.17062 -72.07759 9339 ft 179 kts 325°
2026-04-22 19:13 -39.15953 -72.08516 9808 ft 180 kts 324°
2026-04-22 19:13 -39.14893 -72.09244 10207 ft 182 kts 324°
2026-04-22 19:13 -39.13945 -72.09891 10523 ft 183 kts 324°
2026-04-22 19:14 -39.13200 -72.10400 10748 ft 184 kts 324°
2026-04-22 19:14 -39.11679 -72.11444 11304 ft 185 kts 324°
2026-04-22 19:14 -39.10921 -72.11962 11578 ft 186 kts 324°
2026-04-22 19:14 -39.09768 -72.12750 11981 ft 188 kts 324°
2026-04-22 19:15 -39.08612 -72.13542 12377 ft 190 kts 324°
2026-04-22 19:15 -39.07440 -72.14344 12770 ft 191 kts 324°
2026-04-22 19:15 -39.06263 -72.15147 13174 ft 192 kts 324°
2026-04-22 19:15 -39.05079 -72.15956 13579 ft 193 kts 324°
2026-04-22 19:16 -39.03891 -72.16768 13983 ft 194 kts 324°
2026-04-22 19:16 -39.02691 -72.17588 14364 ft 195 kts 324°
2026-04-22 19:16 -39.01503 -72.18399 14735 ft 196 kts 324°
2026-04-22 19:16 -39.00296 -72.19221 15086 ft 197 kts 324°
2026-04-22 19:17 -38.99082 -72.20046 15467 ft 197 kts 324°
2026-04-22 19:17 -38.97869 -72.20873 15835 ft 198 kts 324°
2026-04-22 19:17 -38.96644 -72.21707 16208 ft 199 kts 324°
2026-04-22 19:17 -38.95418 -72.22541 16573 ft 200 kts 324°
2026-04-22 19:18 -38.94188 -72.23377 16941 ft 201 kts 324°
2026-04-22 19:18 -38.92941 -72.24203 17309 ft 203 kts 328°
2026-04-22 19:18 -38.91541 -72.24681 17666 ft 214 kts 344°
2026-04-22 19:18 -38.90028 -72.24653 18045 ft 223 kts
2026-04-22 19:19 -38.88502 -72.24173 18409 ft 227 kts
2026-04-22 19:19 -38.86985 -72.23693 18750 ft 228 kts
2026-04-22 19:19 -38.85439 -72.23211 19060 ft 230 kts
2026-04-22 19:19 -38.83884 -72.22712 19397 ft 231 kts
2026-04-22 19:20 -38.82321 -72.22208 19726 ft 232 kts
2026-04-22 19:20 -38.80746 -72.21705 20050 ft 234 kts
2026-04-22 19:20 -38.79163 -72.21200 20375 ft 235 kts
2026-04-22 19:20 -38.77569 -72.20690 20717 ft 237 kts
2026-04-22 19:21 -38.75959 -72.20174 21059 ft 238 kts
2026-04-22 19:21 -38.74345 -72.19659 21421 ft 239 kts
2026-04-22 19:21 -38.72736 -72.19145 21809 ft 238 kts
2026-04-22 19:21 -38.71126 -72.18632 22185 ft 238 kts
2026-04-22 19:22 -38.69533 -72.18123 22552 ft 238 kts
2026-04-22 19:22 -38.67920 -72.17608 22925 ft 238 kts
2026-04-22 19:22 -38.66309 -72.17093 23305 ft 238 kts
2026-04-22 19:22 -38.64704 -72.16581 23669 ft 238 kts
2026-04-22 19:23 -38.63094 -72.16067 24014 ft 238 kts
2026-04-22 19:23 -38.61507 -72.15561 24319 ft 238 kts
2026-04-22 19:23 -38.59898 -72.15047 24624 ft 237 kts
2026-04-22 19:23 -38.58297 -72.14538 24926 ft 237 kts
2026-04-22 19:24 -38.56696 -72.14027 25222 ft 237 kts
2026-04-22 19:24 -38.55099 -72.13517 25529 ft 236 kts
2026-04-22 19:24 -38.53504 -72.13011 25821 ft 236 kts
2026-04-22 19:24 -38.51904 -72.12502 26127 ft 236 kts
2026-04-22 19:25 -38.50310 -72.11995 26413 ft 236 kts
2026-04-22 19:25 -38.48719 -72.11488 26703 ft 235 kts
2026-04-22 19:25 -38.47132 -72.10986 26999 ft 235 kts
2026-04-22 19:25 -38.45546 -72.10484 27284 ft 235 kts
2026-04-22 19:26 -38.43958 -72.09981 27576 ft 235 kts
2026-04-22 19:26 -38.42393 -72.09485 27858 ft 234 kts
2026-04-22 19:26 -38.40809 -72.08983 28150 ft 234 kts
2026-04-22 19:26 -38.39228 -72.08484 28433 ft 234 kts
2026-04-22 19:27 -38.37648 -72.07985 28711 ft 234 kts
2026-04-22 19:27 -38.36071 -72.07486 28995 ft 233 kts
2026-04-22 19:27 -38.34495 -72.06988 29276 ft 233 kts
2026-04-22 19:27 -38.32918 -72.06491 29531 ft 233 kts
2026-04-22 19:28 -38.31344 -72.05993 29821 ft 233 kts
2026-04-22 19:28 -38.29773 -72.05498 30092 ft 233 kts
2026-04-22 19:28 -38.28542 -72.05111 30282 ft 234 kts
2026-04-22 19:28 -38.26922 -72.04606 30294 ft 245 kts
2026-04-22 19:29 -38.25234 -72.04076 30295 ft 254 kts
2026-04-22 19:29 -38.23504 -72.03527 30292 ft 263 kts
2026-04-22 19:29 -38.21697 -72.02954 30292 ft 271 kts
2026-04-22 19:29 -38.19842 -72.02369 30295 ft 278 kts
2026-04-22 19:30 -38.18563 -72.01966 30296 ft 282 kts
2026-04-22 19:30 -38.16002 -72.01158 30286 ft 289 kts
2026-04-22 19:30 -38.14032 -72.00538 30287 ft 293 kts
2026-04-22 19:30 -38.12038 -71.99910 30287 ft 297 kts
2026-04-22 19:31 -38.10050 -71.99284 30286 ft 299 kts
2026-04-22 19:31 -38.05972 -71.98004 30284 ft 305 kts
2026-04-22 19:32 -38.01794 -71.96693 30288 ft 310 kts
2026-04-22 19:32 -37.97589 -71.95372 30285 ft 313 kts
2026-04-22 19:33 -37.93334 -71.94044 30281 ft 317 kts
2026-04-22 19:33 -37.89026 -71.92698 30284 ft 321 kts
2026-04-22 19:34 -37.84668 -71.91338 30277 ft 324 kts
2026-04-22 19:34 -37.80319 -71.89982 30270 ft 321 kts
2026-04-22 19:35 -37.75992 -71.88637 30268 ft 322 kts
2026-04-22 19:35 -37.71637 -71.87285 30262 ft 321 kts
2026-04-22 19:36 -37.67272 -71.86148 30258 ft 320 kts
2026-04-22 19:36 -37.62899 -71.84998 30260 ft 321 kts
2026-04-22 19:37 -37.58552 -71.83864 30261 ft 321 kts
2026-04-22 19:37 -37.54177 -71.82720 30258 ft 321 kts
2026-04-22 19:38 -37.49803 -71.81579 30250 ft 321 kts
2026-04-22 19:38 -37.45420 -71.80435 30256 ft 321 kts
2026-04-22 19:39 -37.41044 -71.79296 30253 ft 321 kts
2026-04-22 19:39 -37.36666 -71.78158 30255 ft 321 kts
2026-04-22 19:40 -37.32290 -71.77021 30254 ft 321 kts
2026-04-22 19:40 -37.27938 -71.75892 30249 ft 322 kts
2026-04-22 19:41 -37.23555 -71.74756 30249 ft 321 kts